ATLAS 5 CENTAUR DEB, 43961

Orbit data source: Space-Track

ATLAS 5 CENTAUR DEB, 43961 is space debris in HEO originally from a launch on Wed, 17 Sep 2014 UTC launched from the Air Force Eastern Test Range (AFETR). Debris objects in space refer to the collection of defunct objects orbiting the Earth. Examples of debris include non-operational satellites, rocket bodies, and fragments generated from explosions, collisions, or faulty payload assembly.

Loading next visibility...
Identifier
43961, 2014-055Q
Orbit
HEO
Country
Flag of USUS
Related business
Flag of USUnited Launch Alliance/Lockheed Martin (US)
Manufacturer
Unknown
Mission
Spacecraft
Bus & Motor
Unknown
Mass
Unknown
Launch date (UTC)
2014-09-17 (11 years ago)
Launch vehicle
Unknown
Launch site
Air Force Eastern Test Range (AFETR)
Object type
Payload
Rocket body
Debris
Shape & HBR
Unknown shape, 1.1 m
Radar Cross Section
Small (<0.1 m²)

Expand to show TLE details & history
Last TLE update: 1 month ago

TLE from 1 month ago
0 ATLAS 5 CENTAUR DEB
1 43961U 14055Q   25260.37286382 -.00000037  00000-0  00000-0 0  9993
2 43961  19.6248 168.9468 4877838 119.5846 297.4320  1.85324241 47633
Epoch: 2025-09-17T08:56Z
TLE epoch observation values (Epoch: 2025-09-17T08:56:55.434Z)
Latitude
0.00002°
Longitude
38.12298°
Altitude
21,762.65 km
Speed
3.754 km/s
True Right ascension
11h 15m 36s
True Declination
0° 00' 00"
Sunlit
Object was in daylight at epoch
Visualization orbit readout
Latitude
Unknown
Longitude
Unknown
Altitude
Unknown
Speed
Unknown
Apparent Right ascension
Unknown
Apparent Declination
Unknown
Sunlit
N/A
Visualization observer readout
Local Sidereal Time
22:30:34
Azimuth
Unknown
Elevation
Unknown
Doppler factor
Unknown
Orbital elements
Apogee altitude
35,278.505 km
Perigee altitude
7,963.467 km
Semi-major axis
27,999.123 km
Eccentricity
0.48778
Inclination
19.6248°
RAAN
168.9468°
Arg. of periapsis
119.5846°
True anomaly
240.35654°
Mean anomaly
297.432°
Eccentric anomaly
269.48518°
Mean motion
0.46326 °/min
Orbital period
777.1 mins
BSTAR
0
Loading maneuver chart data...
Computing Atmospheric mass density...

Documentation

Showing up to 5 results
|